TimeCST,TemperatureF,Dew PointF,Humidity,Sea Level PressureIn,VisibilityMPH,Wind Direction,Wind SpeedMPH,Gust SpeedMPH,PrecipitationIn,Events,Conditions,WindDirDegrees,DateUTC
12:56 AM,28.0,24.1,85,30.04,9.0,South,6.9,-,N/A,,Overcast,190,2014-02-16 06:56:00
1:56 AM,28.0,26.1,92,30.04,8.0,SSW,4.6,-,N/A,,Overcast,200,2014-02-16 07:56:00
2:56 AM,27.1,24.1,88,30.03,9.0,South,5.8,-,N/A,,Partly Cloudy,180,2014-02-16 08:56:00
3:56 AM,26.1,24.1,92,30.02,8.0,Calm,Calm,-,N/A,,Partly Cloudy,0,2014-02-16 09:56:00
4:56 AM,24.1,22.1,92,30.04,8.0,Calm,Calm,-,N/A,,Clear,0,2014-02-16 10:56:00
5:56 AM,24.1,23.0,96,30.05,8.0,Calm,Calm,-,N/A,,Clear,0,2014-02-16 11:56:00
6:56 AM,22.1,21.0,96,30.07,5.0,Calm,Calm,-,N/A,,Clear,0,2014-02-16 12:56:00
7:56 AM,26.1,23.0,88,30.10,6.0,NW,4.6,-,N/A,,Clear,320,2014-02-16 13:56:00
8:56 AM,30.0,26.1,85,30.12,6.0,NW,9.2,-,N/A,,Clear,320,2014-02-16 14:56:00
9:56 AM,32.0,25.2,76,30.17,10.0,NNW,10.4,-,N/A,,Overcast,330,2014-02-16 15:56:00
10:56 AM,32.9,25.2,73,30.19,7.0,NNW,5.8,-,N/A,,Overcast,340,2014-02-16 16:56:00
11:56 AM,34.0,26.1,73,30.19,7.0,WNW,9.2,-,N/A,,Mostly Cloudy,300,2014-02-16 17:56:00
12:56 PM,32.9,26.1,76,30.20,7.0,NW,11.5,-,N/A,,Overcast,320,2014-02-16 18:56:00
1:56 PM,34.0,27.1,76,30.20,6.0,NNW,11.5,-,N/A,,Haze,330,2014-02-16 19:56:00
2:56 PM,32.0,26.1,79,30.22,6.0,NW,10.4,-,N/A,,Haze,320,2014-02-16 20:56:00
3:56 PM,32.0,26.1,79,30.24,6.0,NW,9.2,-,N/A,,Haze,310,2014-02-16 21:56:00
4:56 PM,31.1,25.2,79,30.25,6.0,NW,8.1,-,N/A,,Haze,310,2014-02-16 22:56:00
5:56 PM,29.1,25.2,85,30.26,7.0,NNW,4.6,-,N/A,,Scattered Clouds,340,2014-02-16 23:56:00
6:56 PM,28.0,24.1,85,30.28,9.0,North,4.6,-,N/A,,Clear,10,2014-02-17 00:56:00
7:56 PM,27.1,22.1,81,30.27,9.0,Calm,Calm,-,N/A,,Clear,0,2014-02-17 01:56:00
8:56 PM,26.1,22.1,85,30.28,10.0,NE,4.6,-,N/A,,Clear,40,2014-02-17 02:56:00
9:56 PM,25.2,21.0,84,30.27,10.0,NE,5.8,-,N/A,,Clear,50,2014-02-17 03:56:00
10:56 PM,24.1,21.0,88,30.26,9.0,NE,4.6,-,N/A,,Clear,50,2014-02-17 04:56:00
11:56 PM,25.2,21.0,84,30.25,8.0,ENE,6.9,-,N/A,,Clear,70,2014-02-17 05:56:00